Regional Weather Roundup
Issued by NWS Corpus Christi, TX

Home | Current Version | Previous Version | Text Only | Print | Product List | Glossary On
Versions: 1 2 3 4 5 6 7 8 9 10 11 12 13 14 15 16 17 18 19 20 21 22 23 24 25 26 27
000
ASUS44 KCRP 310610
RWRCRP

SOUTH TEXAS REGIONAL WEATHER ROUNDUP
NATIONAL WEATHER SERVICE CORPUS CHRISTI TX
100 AM CDT SAT JUL 31 2021


TXZ229>244-310700-
...CORPUS CHRISTI AREA OBSERVATIONS...

CITY           SKY/WX    TMP DP  RH WIND       PRES   REMARKS
CORPUS CHRISTI PTCLDY    79  78  97 SE6       30.03R
NAS CORPUS CHR CLEAR     85  77  77 S10       30.03R HX  95
ROCKPORT       MOCLDY    85  79  82 S6        30.02S HX  98
KINGSVILLE NAS CLEAR     80  74  81 SE7       30.02S
ALICE          CLEAR     78  76  93 S3        30.02S
$$

...VICTORIA AREA OBSERVATIONS...

CITY           SKY/WX    TMP DP  RH WIND       PRES   REMARKS
PORT LAVACA    CLEAR     81  76  86 CALM      30.04F
VICTORIA       CLEAR     79  75  87 S6        30.04S
BEEVILLE       FAIR      79  79 100 CALM      30.03S
PLEASANTON     CLEAR    N/A N/A N/A SE3       30.05S
SAN ANTONIO    PTCLDY    82  74  76 S12       30.06S
$$

...LAREDO AREA OBSERVATIONS...

CITY           SKY/WX    TMP DP  RH WIND       PRES   REMARKS
LAREDO         CLEAR     85  73  67 S14       30.02S HX  91
DEL RIO        CLEAR     87  67  51 E7        30.02F HX  90
MCALLEN        CLEAR     80  74  81 SE8       30.04F
HEBBRONVILLE   CLEAR     79  74  84 S3        30.05F
$$

...OTHER TEXAS OBSERVATIONS...

CITY           SKY/WX    TMP DP  RH WIND       PRES   REMARKS
BROWNSVILLE    CLEAR     79  74  84 SE6       30.04F
HOUSTON        MOCLDY    81  74  79 CALM      30.04S
COL. STATION   CLEAR     80  73  79 S5        30.05S
AUSTIN         PTCLDY    77  73  87 S5        30.05S
TEMPLE         CLEAR     81  73  76 S12       30.06S
WACO           CLEAR     84  74  71 SE8       30.04S HX  91
FORT WORTH     PTCLDY    85  73  67 S7        30.02S HX  91
WICHITA FALLS  CLEAR     80  71  74 S9        30.03S
LUBBOCK        CLEAR     76  62  62 S5        30.16S
EL PASO        CLOUDY    81  52  36 CALM      30.17F
$$

...MARINE OBSERVATIONS...

STATION/POSITION TIME  SKY/WX   TEMP    WIND        PRES    VSBY  WAVE   SWELL
                                AIR SEA DIR/SP/G                  HT/PER HT/PER
                 (UTC)          (F)     (DEG/KT/KT) (MB)    (MI)  (FT/S) (FT/S)
PORT ARANSAS     0600            84     180/ 15/ 16   N/A
MALAQUITE BEACH  0530            84     140/ 14/ 17   N/A
BUOY 6 SE PORT A NOT AVBL
BUOY 90 E PORT A 0550            84 87  170/ 12/ 16 1017.4R         2/ 6
BUOY 45 SE BAFFI 0550               86  180/ 12/ 16   N/A           2/ 6
BUOY 200 E PT IS 0550            86 86  170/  6/  8 1017.9F         2/ 6   2/ 6
BUOY 15 E GALVES 0550            85 88  220/ 10/ 12 1016.7F         1/ 5
$$



USA.gov is the U.S. government's official web portal to all federal, state and local government web resources and services.